This is the latest recevied weather packets stored in our database for station/object N1HQ. If no packets are shown the sender has not sent any weather packets the latest 10 day(s).
| Time | Temp. | Humidity | Pressure | Rain* | Wind** | Luminosity | Snow |
|---|---|---|---|---|---|---|---|
| 1777910978 | 25° C | 45% | 1016.2 hPa | 0 mm | - | - | - |
| 1777910684 | 24.44° C | 44% | 1016.3 hPa | 0 mm | - | - | - |
| 1777910443 | 24.44° C | 44% | 1016.4 hPa | 0 mm | - | - | - |
| 1777910173 | 24.44° C | 46% | 1016.5 hPa | 0 mm | - | - | - |
| 1777909908 | 24.44° C | 43% | 1016.4 hPa | 0 mm | - | - | - |
| 1777909648 | 23.89° C | 45% | 1016.4 hPa | 0 mm | - | - | - |
| 1777909368 | 24.44° C | 44% | 1016.3 hPa | 0 mm | - | - | - |
| 1777909108 | 23.89° C | 43% | 1016.4 hPa | 0 mm | - | - | - |
| 1777908848 | 24.44° C | 47% | 1016.3 hPa | 0 mm | - | - | - |
| 1777908603 | 23.89° C | 45% | 1016.3 hPa | 0 mm | - | - | - |
| 1777908303 | 23.89° C | 44% | 1016.3 hPa | 0 mm | - | - | - |
| 1777908009 | 23.89° C | 45% | 1016.3 hPa | 0 mm | - | - | - |
| 1777907753 | 23.89° C | 45% | 1016.4 hPa | 0 mm | - | - | - |
| 1777907457 | 23.33° C | 45% | 1016.3 hPa | 0 mm | - | - | - |
| 1777906648 | 23.33° C | 42% | 1016.2 hPa | 0 mm | - | - | - |
| 1777903703 | 21.67° C | 53% | 1016.4 hPa | 0 mm | - | - | - |
| 1777903455 | 21.67° C | 56% | 1016.4 hPa | 0 mm | - | - | - |
| 1777903188 | 21.11° C | 60% | 1016.4 hPa | 0 mm | - | - | - |
| 1777902933 | 21.11° C | 59% | 1016.3 hPa | 0 mm | - | - | - |
| 1777902636 | 20.56° C | 59% | 1016.3 hPa | 0 mm | - | - | - |
| 1777902388 | 20.56° C | 60% | 1016.3 hPa | 0 mm | - | - | - |
| 1777902088 | 20.56° C | 59% | 1016.5 hPa | 0 mm | - | - | - |
| 1777901808 | 20° C | 61% | 1016.4 hPa | 0 mm | - | - | - |
| 1777901553 | 19.44° C | 60% | 1016.4 hPa | 0 mm | - | - | - |
| 1777901308 | 19.44° C | 61% | 1016.4 hPa | 0 mm | - | - | - |
* Rain latest hour (hover to see other rain measurements)
** Current wind speed in m/s (hover to see current wind gust speed)